Miscellaneous Local Product
Issued by NWS Hastings, NE

Home | Current Version | Previous Version | Text Only | Print | Product List | Glossary Off
Versions: 1 2 3 4 5 6 7 8 9 10 11 12 13 14 15 16 17 18 19 20 21 22 23 24 25 26 27 28 29 30 31 32 33 34 35 36 37 38 39 40 41 42 43 44 45 46 47 48 49 50

000
AXUS43 KGID 041202
MISGRI

GID CWA HOURLY WEATHER ROUNDUP
NATIONAL WEATHER SERVICE HASTINGS NE
700 AM CDT WED MAY 04 2016

NOTE: "FAIR" INDICATES FEW OR NO CLOUDS BELOW 12,000 FEET WITH NO
SIGNIFICANT WEATHER AND/OR OBSTRUCTIONS TO VISIBILITY.

...SOUTH CENTRAL NEBRASKA...

CITY           SKY/WX    TMP DP  RH WIND       PRES   REMARKS
GRAND ISLAND   CLEAR     46  38  73 N9        30.06R
HASTINGS       CLEAR     46  40  79 NW9       30.05R
KEARNEY        CLEAR     46  37  71 NW5       30.08R
ORD            CLEAR     42  38  85 NW9       30.07R
YORK           CLEAR     46  37  71 N9        30.04R
AURORA         CLEAR     44  39  82 N9        30.05R
LEXINGTON      CLEAR     42  39  88 W6        30.11R
HOLDREGE       CLEAR     44  40  86 NW7       30.07R
HEBRON         CLEAR     51  42  71 N9        30.01R

...NEBRASKA PANHANDLE...

CITY           SKY/WX    TMP DP  RH WIND       PRES   REMARKS
CHADRON        CLEAR     39  36  89 CALM      30.17R
ALLIANCE       CLEAR     34  33  96 W7        30.17R WCI  28
SCOTTSBLUFF    CLEAR     41  37  86 NW9       30.19R
SIDNEY         CLEAR     37  34  89 W9        30.19S WCI  30

...WESTERN AND NORTH CENTRAL NEBRASKA...

CITY           SKY/WX    TMP DP  RH WIND       PRES   REMARKS
VALENTINE      CLEAR     38  34  85 W3        30.13R
AINSWORTH      CLEAR     41  36  83 NW6       30.12R
ONEILL         CLEAR     43  34  69 NW9       30.09R
BROKEN BOW     CLEAR     44  38  79 N9        30.09R
IMPERIAL       CLEAR     46  37  71 NW10      30.14R
NORTH PLATTE   CLEAR     39  37  92 NW3       30.13R
MCCOOK         CLEAR     42  37  82 W7        30.12R

...EASTERN NEBRASKA...

CITY           SKY/WX    TMP DP  RH WIND       PRES   REMARKS
NORFOLK        CLEAR     43  35  73 NW8       30.04R
SO SIOUX CITY  CLEAR     44  36  73 NW12      30.01R
TEKAMAH        CLEAR     45  37  73 NW9       30.00R
COLUMBUS       CLEAR     46  30  53 NW13      30.04R
ALBION         CLEAR     38  34  84 NW7       30.06R WCI  33
OMAHA EPPLEY   CLEAR     48  37  65 N10       29.97R
OFFUTT AFB     CLEAR     50  35  56 NW6       29.96R
MILLARD        CLEAR     50  35  55 NW7       29.96R
LINCOLN        CLEAR     50  36  58 NW10      30.01R
NEBRASKA CITY  CLEAR     49  35  57 N14       29.94R
BEATRICE       CLEAR     44  40  86 NW5       29.98R
FALLS CITY     CLEAR     50  40  68 NW10      29.93R

...NORTHERN KANSAS...

CITY           SKY/WX    TMP DP  RH WIND       PRES   REMARKS
GOODLAND       CLEAR     41  34  76 W10       30.16R
HILL CITY      CLEAR     49  40  71 N13       30.10R
NORTON         SUNNY     45  36  70 NW12      30.09R
PHILLIPSBURG   CLEAR     46  41  81 CALM      30.08R
SMITH CENTER   CLEAR     41  39  93 N7        30.06R
BELOIT         CLEAR     45  41  87 W3        30.03R
HAYS           CLEAR     46  36  66 N9        30.07R
RUSSELL        CLEAR     47  42  83 NW9       30.03R
CONCORDIA      CLEAR     49  42  77 N9        30.01R
SALINA         CLEAR     50  45  83 NW7       30.01R
TOPEKA         CLEAR     51  44  77 W6        29.93R



USA.gov is the U.S. government's official web portal to all federal, state and local government web resources and services.